Vertical_Velocity
-2 -2 -2 -2 -2 -2 -2 -2 -2 -2 -2 -2 -2 -2 -2 -2 -2 -2 -2 -1 -2 -2 -2 -2 -2 -1 -1 -1 -1 -0 -0 -1 -1 -1 -1 -1 -1 -1 -2 -2 -2 -2 -2 -1 -1 -0 -0 0 0 0 0 0 1 1 1 1 1 1 1 -0 -1 -1 -1 -1 -1 -1 -1 -1 -1 -1 -0 -0 -0 -0 -1 -1 -1 -1 -1 -1 -1 -1 -1 -1 -0 -0 -0 -1 -1 -1 -1 -1 -1 -1 -0 -1 -1 -1 -0 -0 0 0 0
-2 -2 -2 -2 -2 -2 -2 -2 -2 -2 -2 -2 -2 -2 -2 -2 -2 -2 -1 -1 -2 -2 -2 -2 -2 -1 -1 -0 0 1 1 1 0 0 -0 -1 -1 -2 -2 -2 -2 -2 -2 -2 -1 0 1 1 1 1 0 1 1 1 1 1 1 1 -0 -1 -1 -1 -2 -1 -1 -1 -1 -1 -1 -1 -0 -0 -0 -0 -1 -1 -1 -1 -1 -1 -1 -1 -1 -1 -1 -0 -0 -1 -1 -1 -1 -1 -1 -1 -1 -1 -1 -1 -0 -0 -0 -0 -1
-3 -3 -3 -2 -2 -2 -2 -2 -2 -2 -2 -2 -2 -2 -2 -2 -2 -1 -1 -2 -2 -2 -2 -2 -2 -2 -1 -1 -0 0 1 1 0 0 0 -1 -1 -2 -2 -2 -2 -3 -3 -2 -2 -1 1 1 1 0 -0 -0 0 0 1 1 0 -0 -1 -1 -1 -1 -1 -1 -1 -1 -1 -1 -1 -1 -0 -1 -1 -1 -1 -1 -1 -1 -1 -1 -1 -1 -1 -1 -1 -1 -1 -1 -1 -1 -1 -1 -1 -1 -1 -1 -1 -1 -1 -1 -1 -0 -1
-3 -3 -3 -2 -2 -2 -2 -2 -2 -2 -2 -2 -2 -2 -2 -2 -1 -1 -2 -2 -2 -2 -2 -2 -2 -2 -2 -2 -1 -1 -1 -1 -0 -0 -0 -0 -1 -2 -2 -2 -2 -3 -3 -3 -3 -3 -2 -2 -1 -1 -1 -1 -0 -0 -0 -1 -1 -1 -1 -1 -1 -1 -1 -1 -1 -1 -1 -1 -1 -1 -1 -1 -1 -1 -1 -1 -1 -1 -1 -1 -1 -1 -1 -1 -1 -1 -1 -1 -2 -2 -2 -2 -1 -1 -1 -1 -1 -1 -1 -1 -1 -0 -0
-3 -3 -2 -2 -2 -2 -2 -2 -2 -2 -2 -2 -2 -2 -1 -1 -1 -2 -2 -2 -2 -1 -1 -2 -2 -2 -2 -2 -2 -2 -2 -1 -1 -1 -0 0 -0 -1 -1 -2 -2 -2 -3 -3 -3 -4 -4 -3 -2 -1 -1 -1 -1 -1 -1 -1 -1 -1 -1 -1 -1 -1 -1 -1 -1 -1 -1 -1 -1 -1 -1 -1 -1 -1 -1 -1 -1 -1 -1 -1 -1 -1 -1 -1 -1 -1 -1 -1 -1 -2 -2 -2 -1 -1 -1 -1 -2 -2 -1 -1 -0 -0 -0
-3 -3 -2 -2 -2 -2 -1 -1 -1 -1 -2 -2 -2 -1 -1 -2 -2 -2 -2 -1 -1 -1 -1 -2 -2 -3 -3 -3 -3 -2 -2 -2 -1 -1 -1 0 0 0 -1 -1 -2 -2 -2 -2 -3 -3 -3 -3 -3 -2 -1 -1 -1 -1 -1 -1 -1 -1 -1 -1 -1 -1 -1 -1 -1 -1 -1 -1 -1 -1 -1 -1 -1 -1 -1 -1 -1 -1 -0 -1 -1 -1 -1 -1 -1 -1 -1 -1 -1 -1 -2 -1 -1 -1 -1 -1 -1 -1 -1 -1 -1 -1 -0
-2 -2 -2 -2 -2 -1 -1 -1 -1 -1 -1 -1 -1 -1 -2 -2 -2 -1 -1 -1 -1 -1 -1 -1 -2 -3 -3 -3 -3 -2 -2 -2 -2 -1 -1 -0 0 0 -0 -1 -1 -1 -1 -1 -2 -2 -2 -2 -2 -2 -1 -1 -1 -1 -1 -1 -1 -1 -1 -1 -1 -1 -1 -1 -1 -1 -1 -1 -1 -1 -1 -1 -1 -1 -1 -1 -1 -1 -1 -1 -1 -1 -1 -1 -1 -1 -1 -1 -1 -1 -1 -1 -1 -1 -1 -1 -1 -1 -1 -1 -1 -1 -1
-2 -2 -2 -2 -2 -1 -1 -1 -1 -1 -1 -1 -1 -1 -1 -1 -0 -0 0 0 0 -0 -1 -1 -2 -2 -3 -3 -2 -2 -2 -1 -1 -1 -1 -1 0 1 0 0 -0 -0 -0 0 0 -0 -1 -1 -1 -1 -1 -1 -1 -1 -1 -1 -1 -1 -1 -1 -1 -1 -1 -1 -1 -1 -1 -1 -1 -1 -1 -1 -1 -1 -1 -1 -1 -1 -1 -1 -1 -1 -1 -1 -1 -1 -1 -1 -1 -1 -1 -1 -1 -1 -1 -1 -1 -1 -1 -1 -1 -1 -2
-2 -2 -2 -1 -1 -1 -1 -1 -1 -1 -1 -1 -0 -0 0 0 1 1 1 1 0 0 -0 -1 -1 -2 -2 -2 -2 -2 -2 -1 -1 -1 -1 -0 0 1 1 1 0 0 1 1 1 1 1 1 0 0 0 0 -0 -0 -1 -1 -1 -1 -0 -0 0 0 0 -0 -1 -1 -1 -1 -1 -1 -1 -1 -1 -1 -1 -1 -1 -1 -1 -1 -1 -1 -1 -1 -1 -0 -0 -0 -0 -0 -0 -0 -0 -0 -0 -0 -0 -0 -0 -0 -1 -1 -1
-2 -1 -1 -1 -1 -1 -1 -1 -0 0 0 0 1 1 1 1 1 1 1 1 0 0 -0 -1 -1 -1 -2 -2 -2 -2 -2 -1 -1 -0 -0 -0 0 1 1 1 1 1 1 1 1 1 1 1 1 1 1 1 0 0 -0 -0 -0 -0 -0 -0 0 0 0 -0 -1 -1 -1 -1 -1 -1 -1 -0 -0 -1 -1 -1 -1 -1 -1 -1 -1 -1 -1 -1 -1 -1 -0 -0 -0 -0 -0 -0 -0 -0 -0 -0 -0 0 -0 0 0 -0 0
-1 -1 -1 -1 -1 -0 -0 0 0 1 1 1 1 1 1 1 1 1 0 0 0 -0 -0 -0 -0 -0 -1 -1 -2 -2 -2 -2 -1 -1 -0 0 0 1 1 1 1 1 1 1 1 1 1 1 1 1 0 0 0 0 0 0 -0 -0 -1 -1 -1 -0 -0 -0 -0 -0 -1 -1 -1 -1 -1 -0 -0 -0 -1 -1 -1 -1 -1 -0 -0 -1 -1 -1 -1 -1 -1 -1 -0 -0 -0 -0 -0 -0 -0 -0 -0 0 0 0 0 0 0
-1 -0 -0 0 1 1 1 1 1 1 2 2 2 1 1 0 0 -0 -0 -0 -0 -0 -0 -0 0 0 0 -0 -1 -1 -2 -2 -1 -1 -0 -0 0 1 1 1 1 1 0 1 1 1 1 1 1 0 0 0 0 -0 -0 -0 -0 -1 -1 -1 -1 -1 -1 -1 -1 -1 -1 -1 -1 -1 -1 -0 -0 -0 -0 -0 -0 -1 -0 -0 -0 -0 -1 -1 -1 -1 -1 -1 -1 -1 -0 -0 -0 -0 -0 -0 -0 -0 -0 -0 0 0 0
0 1 1 2 2 2 2 2 2 2 2 1 1 1 0 -0 -1 -1 -0 -0 -0 0 0 0 0 1 1 1 0 -0 -1 -1 -1 -1 -1 -0 0 0 1 1 1 1 0 0 1 1 1 1 1 1 0 0 0 -0 -0 -0 -0 -1 -1 -1 -1 -1 -1 -1 -1 -1 -1 -1 -1 -1 -1 -0 -0 -0 -0 -0 -0 -0 -0 -0 -0 -0 -0 -1 -1 -1 -1 -1 -1 -1 -1 -1 -1 -1 -0 -0 -0 -0 -0 -0 -0 -0 -0
2 2 2 2 3 3 2 2 2 2 1 1 0 -0 -1 -1 -1 -1 -1 -0 -0 0 0 0 0 1 1 1 1 0 0 -1 -1 -1 -1 -1 -0 0 0 1 1 1 1 1 1 1 1 1 1 1 1 0 0 0 0 -0 -0 -0 -1 -1 -1 -1 -1 -1 -1 -1 -1 -1 -1 -1 -1 -1 -1 -0 -0 -0 -0 -0 -1 -0 -0 -0 -0 -1 -1 -1 -1 -1 -1 -1 -1 -1 -1 -1 -1 -1 -0 -0 0 -0 -0 -0 -1
3 2 2 2 2 1 1 1 1 1 0 0 -0 -1 -1 -1 -1 -1 -1 -0 -0 0 0 0 0 1 1 1 1 1 1 0 -0 -1 -1 -1 -1 -0 0 0 1 1 1 1 1 1 1 1 1 1 1 1 0 0 0 0 0 -0 -0 -0 -0 -1 -1 -1 -1 -1 -1 -1 -1 -1 -1 -1 -1 -1 -0 -0 -0 -0 -1 -1 -1 -1 -0 -1 -1 -1 -1 -1 -1 -1 -1 -1 -1 -1 -1 -1 -1 -0 0 -0 -0 -0 -1
1 1 1 1 0 0 0 -0 -0 -0 -0 -1 -1 -1 -1 -1 -1 -1 -0 -0 0 0 1 1 1 1 1 1 1 1 1 1 0 -0 -1 -1 -1 -1 -0 0 1 1 1 1 1 1 1 1 1 1 1 0 0 0 0 0 0 0 -0 -0 -0 -0 -1 -1 -1 -1 -2 -1 -1 -1 -1 -1 -1 -0 -0 -0 -0 -0 -1 -1 -1 -1 -1 -1 -1 -1 -1 -1 -1 -1 -1 -1 -1 -1 -1 -1 -1 -1 -0 -0 -0 -0 -1
0 0 0 0 0 -0 -0 -1 -1 -1 -1 -1 -1 -0 -0 -0 -1 -0 -0 -0 0 1 1 1 1 1 1 1 1 1 1 1 0 0 -0 -0 -1 -0 0 1 1 1 2 2 2 2 1 1 1 1 0 0 0 0 0 0 0 0 -0 -1 -1 -1 -1 -1 -1 -1 -2 -1 -1 -2 -2 -2 -1 -0 -0 -0 0 0 -0 -1 -1 -1 -1 -1 -1 -1 -1 -1 -1 -1 -1 -1 -1 -1 -1 -1 -1 -1 -1 -1 -0 -0 -1
0 0 0 0 0 -0 -1 -1 -1 -1 -1 -0 -0 -0 -0 -0 -0 -0 -0 0 0 1 1 1 1 1 1 1 1 1 1 1 1 0 0 0 0 0 1 1 1 2 2 2 2 2 2 2 1 1 1 0 0 0 0 0 0 0 -0 -1 -1 -1 -1 -1 -1 -1 -1 -1 -1 -1 -2 -2 -2 -1 -1 -0 0 0 0 -0 -1 -1 -1 -1 -1 -1 -1 -1 -1 -1 -1 -1 -1 -1 -1 -1 -1 -1 -1 -1 -1 -0 -1
0 1 1 0 0 -0 -0 -0 -0 -0 -0 -0 -0 -0 -0 -0 -0 -0 -0 0 0 0 1 1 1 1 1 1 1 0 0 1 1 1 1 1 1 1 1 1 1 1 1 1 1 1 1 2 2 2 1 1 0 0 0 0 0 0 0 -0 -0 -0 -0 -0 -0 -0 -0 -0 -1 -1 -0 -1 -1 -2 -1 -1 -0 0 0 0 -0 -1 -1 -1 -0 -0 -1 -1 -1 -1 -1 -1 -1 -1 -1 -1 -1 -1 -1 -1 -1 -0 -0
0 0 0 0 -0 -0 -0 -0 -0 -0 -0 -0 -0 -1 -1 -1 -0 -0 0 0 0 0 0 0 0 0 0 0 0 0 0 0 1 1 1 1 1 0 0 0 0 0 0 0 0 0 1 1 1 2 2 1 1 0 0 0 0 0 0 0 0 0 0 0 0 0 -0 0 -0 -0 0 0 -0 -1 -2 -2 -2 -1 0 1 0 -0 -0 -0 -0 -0 -0 -1 -1 -1 -1 -1 -1 -1 -1 -1 -1 -1 -1 -1 -1 -0 -0
-0 -0 -0 -1 -1 -1 -0 -0 -1 -1 -1 -1 -1 -1 -1 -0 -0 -0 0 0 0 0 0 0 0 0 0 0 0 0 0 0 0 0 0 0 0 -0 -0 -0 -0 -0 0 0 0 0 1 1 1 1 2 2 1 1 1 1 1 1 1 1 1 1 1 1 1 1 1 1 0 0 0 1 1 -0 -1 -2 -2 -1 -0 1 1 0 0 0 -0 -0 -0 -0 -1 -1 -0 -1 -1 -1 -1 -1 -1 -1 -1 -1 -1 -1 -0
-0 -0 -1 -1 -1 -1 -1 -1 -1 -1 -1 -1 -0 -0 -0 0 0 0 0 0 0 0 0 0 0 0 -0 -0 -0 0 0 0 0 -0 -0 -0 -0 -0 -1 -1 -1 -0 0 0 0 1 1 1 1 1 1 1 1 1 1 1 1 1 1 1 1 1 1 1 1 1 2 1 1 1 1 1 1 1 -0 -0 -0 -1 -1 0 1 1 0 0 0 -0 -0 -1 -1 -1 -0 -0 -0 -1 -1 -1 -1 -1 -1 -1 -1 -1 -1
-0 -0 -1 -1 -1 -1 -1 -0 -0 -0 0 0 0 0 1 1 1 1 1 1 1 0 0 0 0 0 -0 -0 -0 -0 -0 -0 -0 -0 -0 -0 -0 -1 -1 -1 -1 -1 -0 0 0 1 1 1 1 1 1 1 1 1 1 1 1 1 1 1 1 1 1 1 1 1 2 2 2 2 1 1 1 1 1 1 0 0 -1 -0 0 0 0 0 0 0 -0 -1 -1 -1 0 -0 -0 -0 -1 -1 -1 -1 -1 -1 -1 -1 -1
-0 -0 -0 -0 -0 -0 -0 -0 0 0 1 1 1 1 1 1 1 1 1 1 1 1 1 0 0 0 0 0 -0 -0 -0 -0 -0 -0 -0 -0 -0 -0 -1 -1 -1 -1 -0 0 0 1 1 1 1 1 1 1 1 1 1 1 1 1 1 1 1 1 1 1 1 1 1 1 2 2 2 1 1 2 1 1 1 1 0 -0 -0 0 0 0 1 1 0 -0 -1 -1 -0 0 -0 -1 -1 -1 -1 -1 -1 -1 -1 -1 -1
-0 -0 0 0 0 0 0 0 0 1 1 1 1 1 1 1 1 1 1 1 1 1 1 1 1 1 0 0 0 0 -0 -0 -0 -0 -0 -0 -0 -0 -0 -0 -0 -0 -0 0 0 0 0 1 1 1 1 1 1 1 1 1 1 1 1 1 1 0 1 1 1 1 1 1 1 2 2 2 2 2 2 1 1 1 1 0 0 -0 -0 0 0 1 1 0 -1 -1 -1 0 0 -0 -1 -1 -1 -1 -1 -1 -0 -0 -0
-0 0 0 0 1 1 1 1 1 1 1 1 1 1 1 1 1 1 1 1 1 2 2 1 1 1 1 1 1 1 1 1 1 1 1 0 0 -0 -0 -0 -0 -0 -0 0 0 0 0 0 0 1 1 1 1 1 1 2 1 1 1 0 0 0 0 1 1 1 1 1 1 1 1 1 1 1 1 1 1 1 1 0 0 0 -1 -0 0 1 1 1 0 -1 -3 -0 0 0 -0 -0 -1 -1 -1 -0 -0 -0 0
-0 0 0 1 1 1 1 1 1 1 1 1 1 1 1 1 1 1 1 1 2 2 2 2 2 2 1 1 1 1 1 2 2 2 1 1 1 0 0 0 -0 -0 0 0 0 1 1 0 0 0 0 0 0 1 1 1 1 1 1 0 0 0 0 1 1 1 1 1 1 1 1 1 1 1 1 1 1 0 0 0 0 -0 -0 -0 -1 -1 -0 0 0 -0 -2 -2 -1 -0 0 -0 -0 -1 -1 -1 -0 -0 0
-0 0 0 1 1 1 1 1 1 1 1 1 1 1 1 1 1 1 1 1 2 2 2 2 2 2 2 1 1 1 2 2 2 1 1 1 1 0 0 0 0 0 0 0 0 0 0 0 -0 -0 -0 -0 0 0 1 1 1 1 1 1 1 1 1 1 1 1 1 1 0 0 1 1 1 1 1 1 0 0 -0 0 0 -0 -1 -1 -1 -1 -2 -1 -0 0 -1 -1 -0 0 0 0 -0 -0 -0 -1 -1 -1 -0
0 0 1 1 1 1 1 1 1 1 1 1 1 1 1 1 1 1 1 1 1 1 1 1 2 2 2 1 1 1 1 1 1 1 0 0 0 0 0 0 0 0 -0 -0 -0 0 0 -0 -0 -0 -0 -0 -0 -0 0 0 0 1 1 1 1 1 1 1 1 1 1 0 0 0 0 1 1 1 1 1 1 1 -0 0 0 0 -0 -0 -0 -1 -1 -2 -1 -0 -1 -1 -0 0 0 -0 -0 0 0 -0 -1 -1 -1
1 0 1 0 0 0 0 0 0 0 0 1 1 1 1 1 1 1 1 1 1 1 1 1 2 2 2 1 1 1 1 0 0 0 0 -0 -0 -0 -0 -0 -0 -0 -1 -1 -1 -0 -0 -0 -0 -0 -1 -1 -1 -1 -1 -1 -0 -0 0 1 1 1 1 1 1 1 1 0 0 -0 0 0 0 1 1 1 1 1 1 1 1 0 -0 0 0 1 3 0 -1 -1 -1 -1 -1 -0 -1 -1 -0 0 0 -0 -1 -1 -1
1 1 1 0 0 -0 -0 -0 0 0 0 1 1 1 1 1 2 2 2 2 2 2 2 2 2 2 2 2 1 1 1 0 0 0 0 0 -0 -0 -0 -0 -1 -1 -1 -1 -1 -1 -0 -0 -0 -0 -0 -1 -1 -1 -2 -1 -1 -1 -0 0 1 1 1 1 1 1 1 0 -0 -0 -0 0 0 0 0 1 1 1 1 1 1 1 0 1 2 2 3 1 -0 -1 -1 -1 -1 -1 -2 -1 -1 -0 -0 -0 -0 -1 -1
1 1 0 0 0 0 -0 0 0 0 1 1 1 1 1 1 2 2 2 2 2 2 2 2 2 2 2 2 2 1 1 1 1 1 1 1 1 0 -0 -1 -1 -1 -1 -1 -1 -1 -1 -1 -0 -0 -0 -1 -1 -1 -1 -1 -1 -1 -0 -0 0 0 1 1 1 1 1 0 -0 -0 -0 0 0 0 0 0 0 0 0 0 0 0 0 4 4 3 0 -0 -1 -1 -0 -1 -2 -3 -3 -2 -2 -1 -1 -1 -1 -1 -1
1 0 0 0 0 0 0 0 0 0 1 1 1 1 1 1 2 2 2 2 2 1 1 1 1 1 1 1 1 1 1 1 1 1 1 1 1 0 -0 -1 -1 -1 -1 -1 -1 -1 -1 -1 -1 -0 -0 -0 -1 -1 -1 -1 -1 -1 -1 -1 -0 -0 0 0 0 0 0 -0 -1 -1 -0 -0 0 0 0 0 0 0 0 0 -0 -1 -0 1 1 1 1 0 0 1 1 2 1 -1 -4 -3 -2 -2 -1 -2 -1 -1 -1
1 1 0 0 -0 -0 -0 0 0 1 1 1 1 1 1 1 1 1 1 1 1 1 1 0 0 0 0 1 1 1 1 1 1 1 1 1 0 0 -0 -0 -0 -0 -0 -1 -1 -1 -1 -1 -1 -1 -1 -0 -0 -0 -1 -1 -1 -1 -1 -1 -1 -1 -0 0 0 0 0 -1 -1 -1 -1 -0 0 0 0 0 0 1 1 0 -0 -1 -1 1 1 1 0 0 0 2 4 3 3 1 -2 -1 -1 -1 -1 -2 -2 -3 -2
0 1 0 0 -0 -0 -0 1 1 1 1 1 0 0 1 1 1 1 1 1 1 1 1 0 0 0 0 0 1 1 0 0 0 0 0 0 0 0 0 0 0 0 0 -0 -1 -1 -1 -1 -1 -1 -1 -0 -0 -0 -0 -1 -1 -1 -2 -2 -1 -1 -1 -0 0 0 -0 -1 -1 -1 -1 -0 -0 0 0 -0 0 1 1 1 1 0 -1 0 2 2 -0 -1 1 2 3 0 -0 -1 -2 2 2 1 0 -1 -3 -3 -3
0 0 0 0 0 0 1 1 1 1 1 1 0 0 0 0 1 1 0 1 1 1 1 1 0 0 0 0 0 0 0 0 0 0 0 0 0 0 0 0 0 0 0 -0 -1 -1 -1 -1 -1 -1 -1 -0 -0 -0 -0 -0 -1 -1 -1 -1 -1 -1 -1 -0 -0 -1 -2 -1 -1 -1 -1 -0 0 0 0 -0 -0 0 1 1 1 1 0 0 1 0 -1 -2 1 3 1 -1 -1 0 -0 3 3 3 4 1 -1 -2 -1
0 0 0 0 0 1 1 1 1 1 1 1 0 -0 -0 0 0 0 0 1 1 1 1 1 1 1 0 0 0 0 0 0 0 0 0 0 0 0 0 0 0 0 0 -0 -1 -1 -1 -2 -1 -1 -1 -0 -0 0 0 0 -0 -0 -1 -1 -1 -1 -1 -1 -1 -2 -3 -2 -1 -0 -0 -0 0 1 1 0 -0 0 1 1 1 1 1 1 1 0 -1 -1 0 2 3 1 1 2 1 6 4 2 3 0 0 1 4
-0 -0 -0 0 0 0 1 1 1 1 1 1 0 -0 -0 0 0 0 0 1 1 1 1 1 1 0 0 -0 -0 0 0 0 0 0 0 0 0 -0 0 0 0 -0 -0 -1 -1 -1 -2 -2 -2 -2 -1 -1 -0 0 0 0 0 -0 -0 -0 -1 -1 -1 -1 -1 -2 -2 -2 -1 -1 -1 -0 0 1 1 1 0 -0 0 0 -0 -0 0 0 1 1 0 -0 -0 1 2 3 3 3 1 1 1 0 -1 -0 -0 1 2
-1 -1 -0 -0 0 0 0 1 1 1 1 0 0 0 0 0 0 0 0 1 1 1 1 1 0 0 -0 0 0 0 0 0 0 0 -0 -0 -0 -0 -0 -0 -0 -0 -1 -1 -1 -1 -2 -2 -2 -2 -2 -1 -0 0 0 0 0 0 0 0 -0 -0 -1 -1 -1 -1 -1 -0 -0 -0 -0 -0 0 0 1 0 0 -0 -0 -0 -1 -1 -0 0 0 0 1 1 0 0 -0 0 -0 -0 0 0 0 1 1 1 -0 -1 -1
-1 -1 -1 -0 0 1 1 1 0 0 0 0 0 0 0 0 0 0 1 1 1 0 0 0 0 0 0 0 1 0 0 0 0 -0 -0 -0 -1 -1 -0 -0 -0 -0 -1 -1 -1 -1 -2 -2 -2 -2 -2 -1 -1 -0 0 0 0 0 0 0 0 0 -0 -1 -1 -1 -0 0 0 0 -0 -0 -0 -0 0 0 -0 -1 -0 -0 -0 -0 0 0 0 0 1 1 1 1 1 0 -0 -0 -0 0 0 1 2 2 1 0 1
-1 -0 -0 0 1 1 1 1 0 0 -0 0 0 0 0 0 0 0 1 1 0 0 0 0 0 0 1 1 1 0 0 0 0 0 -0 -0 -1 -1 -0 -0 -0 -0 -1 -1 -1 -1 -1 -2 -2 -2 -2 -1 -1 -0 0 0 0 0 -0 -0 0 0 0 -0 -0 -1 -0 0 0 -0 -1 -1 -1 -1 -0 -0 -1 -1 -0 0 0 0 1 1 0 0 0 1 1 1 1 1 1 1 1 1 1 1 2 2 2 2 2
-0 -0 -0 0 1 1 1 1 1 0 0 0 0 0 -0 0 0 1 1 1 0 0 1 1 1 1 1 1 0 0 0 0 0 0 0 -0 -0 -1 -0 -0 -0 -0 -1 -1 -1 -1 -1 -2 -2 -2 -2 -1 -1 -0 0 1 0 0 -0 -0 -0 0 0 0 -0 -0 -0 0 0 -0 -1 -1 -1 -1 -1 -1 -0 0 1 1 1 1 1 1 0 0 0 1 1 1 1 1 1 1 1 1 1 1 1 1 1 1 1
0 0 0 1 1 2 2 1 1 1 0 0 0 0 -0 0 1 1 1 1 1 1 1 1 1 1 1 0 0 0 0 0 0 0 0 -0 -0 -0 -0 -0 -0 -0 -1 -1 -1 -1 -1 -1 -2 -2 -1 -1 -1 -0 0 0 0 0 -0 -1 -0 -0 0 0 0 0 0 1 1 0 -1 -1 -2 -2 -1 -0 1 2 2 2 1 1 2 1 0 -0 -0 0 0 0 1 1 1 1 0 0 0 0 0 0 -0 -0 -0
0 1 1 1 1 2 2 1 1 1 1 1 0 0 0 1 1 1 1 1 1 1 1 1 1 1 1 0 0 0 1 1 1 0 0 -0 -0 -1 -1 -0 -0 -0 -1 -1 -0 -1 -1 -1 -1 -1 -1 -1 -1 -0 0 0 0 -0 -1 -1 -1 -0 -0 0 0 0 0 0 0 0 -1 -1 -2 -2 -1 0 2 2 2 2 1 2 2 1 0 -0 -1 -0 -0 -0 -0 0 0 0 0 -0 -0 -0 -0 -0 -0 -0 -0
1 1 1 1 1 1 1 1 1 1 1 1 1 0 0 1 1 1 1 1 1 1 1 1 1 0 0 0 1 1 1 1 0 -0 -1 -1 -1 -1 -1 -1 -1 -1 -1 -1 -1 -1 -1 -1 -1 -1 -1 -0 -0 0 0 0 0 -1 -1 -1 -1 -1 -1 -0 0 0 0 0 -0 -0 -1 -2 -2 -2 -1 1 2 2 2 1 1 1 1 1 -0 -1 -1 -1 -1 -1 -0 -0 -0 -0 -0 -0 -0 -0 -0 -0 -0 -0 -0
1 1 1 1 1 1 1 2 1 1 0 0 0 0 1 1 1 1 1 1 1 1 1 1 0 0 0 1 1 1 1 1 0 -0 -1 -1 -1 -1 -1 -1 -1 -1 -1 -1 -1 -1 -2 -1 -1 -1 -1 -0 0 1 1 1 0 -1 -1 -1 -1 -1 -1 -1 -0 0 0 -0 -0 -1 -1 -2 -2 -2 -1 1 1 2 1 1 1 1 1 0 -0 -1 -1 -0 -0 -1 -0 -0 -0 -0 -0 -0 -0 0 0 -0 -0 -0 -0
1 1 1 1 1 2 2 2 1 1 0 0 0 0 0 0 1 1 1 1 1 1 1 1 1 0 1 1 1 1 1 1 0 -0 -1 -1 -2 -2 -2 -1 -1 -1 -1 -1 -1 -1 -2 -2 -1 -1 -1 -0 0 1 1 1 0 -0 -1 -1 -1 -1 -2 -2 -1 -0 0 -0 -0 -1 -2 -2 -2 -1 -0 1 1 1 1 1 1 1 0 -0 -1 -1 -0 -0 -0 -0 -0 -1 -1 -0 -0 0 0 0 0 0 0 0 -0
1 1 1 2 2 2 2 1 1 1 0 0 -0 -0 -0 0 1 1 1 1 1 2 2 2 1 1 1 1 1 1 1 1 1 1 -0 -1 -2 -2 -2 -1 -1 -0 -0 -1 -1 -1 -1 -1 -1 -1 -1 -0 0 1 1 1 0 -0 -0 -0 -1 -1 -3 -2 -2 -1 0 -0 -1 -1 -2 -3 -2 -2 -0 1 1 1 1 1 1 1 1 -0 -1 -1 0 0 0 0 -0 -1 -1 -0 -0 0 0 0 0 0 0 0 0
1 2 2 2 2 1 1 1 1 1 0 -0 -1 -0 1 1 2 2 2 2 2 3 3 2 1 1 1 1 1 1 2 2 2 1 -0 -1 -2 -2 -1 -0 -0 -1 -0 -0 -0 -1 -1 -1 -1 -1 -0 -0 0 1 1 1 1 0 0 1 -0 -1 -3 -3 -2 -1 -1 -0 -1 -2 -3 -3 -3 -2 -1 0 1 1 0 1 1 2 1 0 -0 -1 0 1 1 0 -0 -0 -0 -0 0 0 0 0 0 0 0 0 0
2 2 2 1 1 1 0 1 1 1 0 -0 -0 0 2 2 2 2 2 2 2 2 2 1 1 1 0 0 0 1 2 2 2 1 -1 -2 -2 -2 -0 0 0 -0 -0 0 0 0 -0 -0 -0 -0 -0 -0 0 0 0 0 0 1 1 1 0 -1 -3 -3 -3 -2 -1 -0 -1 -1 -2 -2 -2 -2 -1 0 0 0 0 1 1 2 2 2 1 -0 -0 -0 -0 -0 -0 -0 -0 -0 0 0 0 0 -0 -0 -0 -0 -0
2 1 1 1 0 0 -0 1 1 1 1 1 1 1 1 1 2 2 1 1 1 1 1 0 0 -0 -1 -1 -0 1 1 2 1 0 -1 -2 -2 -1 -0 -1 -2 -2 -2 -0 0 0 -0 -1 -1 -1 -1 -1 -1 -1 -1 -0 -0 0 0 1 -0 -1 -3 -3 -2 -1 -1 -0 -0 -0 -1 -2 -2 -1 -0 0 0 0 0 0 1 2 3 3 2 1 0 -0 -0 -0 -0 -0 -0 -0 0 0 -0 -0 -1 -1 -1 -1 -1
1 1 1 1 1 0 1 1 1 1 2 1 1 0 0 1 1 1 1 1 1 1 0 -0 -0 -0 -1 -1 -0 0 1 1 0 -0 -1 -1 -0 1 1 1 -1 -3 -6 -5 -4 -3 -2 -3 -4 -4 -4 -3 -3 -2 -1 -1 0 1 1 0 -1 -2 -3 -3 -2 -1 1 1 1 0 -0 -1 -2 -1 -1 -0 -0 -0 -0 -0 0 1 3 3 2 1 0 -0 -0 -1 -1 -0 -0 -0 -0 -0 -0 -1 -1 -1 -1 -1 -1
1 1 1 1 1 1 1 1 1 1 2 1 0 -1 -0 -0 0 0 1 1 1 1 0 0 -0 -0 -1 -1 -1 -0 0 1 0 0 -0 0 1 1 2 2 1 -1 -2 -3 -6 -8 -6 -5 -4 -4 -5 -4 -3 -2 -1 -1 1 2 3 1 -1 -3 -4 -4 -3 -1 1 2 2 1 0 -1 -2 -2 -1 -1 -1 -1 -0 -0 0 1 2 2 1 1 0 -0 -1 -1 -1 -1 -1 -1 -1 -1 -1 -1 -1 -1 -2 -2 -1
0 0 1 1 1 2 1 1 1 1 1 0 0 -0 -0 -0 -0 0 0 0 0 0 0 0 0 -0 -1 -2 -2 -1 0 1 1 2 1 1 2 2 2 1 1 -0 -1 -0 -3 -6 -8 -3 -0 -0 -3 -1 -1 -1 -1 -2 -2 -1 2 3 1 -1 -4 -5 -4 -3 -1 1 1 2 0 -1 -2 -2 -2 -1 -1 -0 -0 0 1 1 1 1 1 0 -0 -0 -1 -1 -1 -1 -1 -1 -1 -1 -1 -1 -1 -2 -2 -2 -1
0 1 1 1 2 2 1 1 2 2 1 1 1 0 -1 -1 -1 -0 0 0 0 1 1 1 0 -0 -2 -3 -2 -1 1 2 3 3 2 2 2 3 3 2 1 1 1 -0 -2 -2 -2 -1 -1 -1 0 1 0 -1 -2 -3 -4 -5 -3 0 3 3 0 -3 -4 -4 -3 -3 -2 -1 0 -0 -1 -1 -2 -1 -1 -0 0 1 1 1 1 1 0 -0 -0 -1 -1 -1 -1 -1 -1 -1 -1 -1 -1 -1 -2 -2 -2 -2 -1
1 1 2 2 2 2 2 2 2 2 2 1 0 -1 -1 -1 -0 1 1 2 2 2 1 1 0 -1 -1 -2 -1 0 3 3 3 3 3 3 3 3 3 2 2 0 -1 -1 -1 -0 1 -1 -2 -2 -1 0 -1 -2 -4 -4 -4 -4 -4 -3 1 4 6 3 0 -2 -4 -6 -6 -5 -1 0 0 -1 -2 -1 -1 -0 1 1 2 2 1 1 0 -0 -0 -1 -1 -1 -1 -1 -1 -1 -1 -1 -1 -1 -2 -2 -2 -2 -2
1 2 1 2 3 3 3 3 2 2 2 1 0 -1 -1 0 1 2 2 2 1 1 1 1 1 0 0 0 1 1 2 3 3 3 3 4 4 4 3 0 -1 -1 -2 -3 -2 -1 -1 -2 -3 -3 -3 2 2 0 -4 -5 -4 -2 -1 -2 -1 1 5 6 5 2 -1 -5 -8 -8 -5 -2 -0 -1 -2 -2 -1 -1 0 1 2 2 1 1 0 0 -0 -0 -1 -1 -1 -1 -1 -1 -1 -1 -1 -1 -1 -2 -2 -2 -1
1 1 2 3 3 3 3 2 2 2 2 1 1 1 1 1 1 1 0 0 0 0 2 2 1 1 1 2 2 2 1 -0 1 2 3 4 4 3 2 1 0 0 1 -0 0 1 -0 -1 -2 -2 -3 0 2 2 -1 -4 -4 -3 -1 -0 -1 -2 -0 5 6 4 -0 -2 -5 -7 -8 -4 -1 -0 -1 -1 -1 -1 -0 1 2 2 2 1 1 0 0 -0 -0 -1 -1 -1 -1 -1 -1 -1 -1 -1 -1 -1 -1 -1 -1
2 2 2 3 3 3 3 3 2 2 2 2 2 2 1 1 0 -0 0 0 1 2 3 2 2 1 3 3 3 2 -1 -2 -0 2 3 3 2 2 3 2 3 3 3 2 3 5 8 6 2 1 5 0 -1 -0 1 -1 -2 -3 -2 0 0 -1 -3 0 3 4 -0 -1 -3 -5 -8 -5 -2 0 0 -0 -0 -0 -1 -0 0 1 2 2 1 1 1 1 0 -1 -1 -1 -1 -1 -1 -1 -1 -1 -1 -1 -1 -1 -1
2 2 3 3 3 3 3 3 3 2 2 2 2 1 0 -0 0 1 2 2 3 3 3 2 2 3 3 3 3 2 -0 -1 0 2 3 1 -0 -0 3 3 2 1 2 1 1 4 9 8 8 9 10 4 1 -0 1 0 -1 -2 -2 -0 0 -0 -3 -3 0 3 0 -1 -2 -3 -6 -5 -3 -1 0 0 -0 -0 -0 -1 -1 -0 1 1 1 1 1 1 0 -1 -1 -1 -2 -1 -1 -1 -1 -1 -2 -1 -1 -1 -1
2 2 2 2 3 3 3 3 2 2 2 2 1 0 -0 0 1 2 3 3 3 3 3 3 3 3 3 2 2 2 1 1 1 1 1 -0 -1 -1 2 1 0 -1 -0 -1 -0 1 4 5 7 8 8 7 6 4 2 -1 -1 -2 -2 -1 0 -0 -3 -4 -1 2 1 -1 -1 -2 -5 -5 -4 -2 -1 -0 -1 -1 -0 -1 -2 -1 0 1 1 1 1 1 -0 -1 -2 -2 -2 -1 -1 -1 -1 -1 -2 -1 -1 -1 -1
Height
1558 1559 1559 1560 1560 1561 1562 1562 1563 1563 1563 1564 1564 1564 1564 1564 1564 1565 1565 1565 1565 1566 1566 1566 1566 1567 1567 1567 1567 1568 1568 1568 1568 1569 1569 1569 1569 1569 1569 1568 1568 1568 1568 1568 1567 1567 1567 1567 1567 1567 1567 1566 1566 1566 1566 1566 1565 1565 1565 1564 1564 1564 1564 1564 1564 1563 1563 1563 1563 1562 1562 1562 1562 1561 1561 1561 1560 1560 1560 1560 1559 1559 1559 1559 1558 1558 1558 1557 1557 1557 1556 1556 1556 1555 1555 1554 1554 1554 1554 1554 1553 1553 1553
1558 1559 1559 1560 1561 1561 1562 1563 1563 1563 1564 1564 1564 1564 1564 1565 1565 1565 1565 1566 1566 1566 1567 1567 1567 1567 1567 1568 1568 1568 1569 1569 1569 1569 1569 1569 1569 1569 1569 1569 1569 1568 1568 1568 1568 1568 1568 1568 1567 1567 1567 1567 1567 1566 1566 1566 1566 1565 1565 1565 1565 1565 1564 1564 1564 1564 1564 1564 1563 1563 1563 1563 1562 1562 1561 1561 1561 1561 1560 1560 1560 1559 1559 1559 1559 1559 1558 1558 1557 1557 1557 1557 1556 1556 1555 1555 1555 1554 1554 1554 1554 1553 1553
1559 1559 1560 1561 1561 1562 1562 1563 1563 1564 1564 1564 1564 1565 1565 1565 1565 1566 1566 1566 1567 1567 1567 1567 1568 1568 1568 1568 1569 1569 1569 1569 1569 1569 1569 1570 1570 1570 1569 1569 1569 1569 1569 1569 1569 1568 1568 1568 1568 1567 1567 1567 1567 1567 1567 1566 1566 1566 1565 1565 1565 1565 1565 1565 1565 1565 1564 1564 1564 1564 1563 1563 1563 1562 1562 1562 1561 1561 1561 1560 1560 1560 1559 1559 1559 1559 1559 1558 1558 1558 1557 1557 1557 1556 1556 1556 1555 1555 1554 1554 1554 1554 1553
1559 1560 1560 1561 1562 1562 1563 1563 1563 1564 1564 1564 1565 1565 1565 1566 1566 1566 1567 1567 1567 1567 1568 1568 1568 1568 1569 1569 1569 1569 1569 1569 1569 1569 1570 1570 1570 1570 1570 1569 1569 1569 1569 1569 1569 1569 1569 1568 1568 1568 1568 1568 1567 1567 1567 1567 1566 1566 1566 1566 1566 1566 1565 1565 1565 1565 1565 1565 1564 1564 1564 1564 1563 1563 1562 1562 1562 1561 1561 1561 1560 1560 1560 1560 1559 1559 1559 1559 1558 1558 1558 1557 1557 1557 1557 1556 1556 1555 1555 1555 1554 1554 1554
1559 1560 1561 1561 1562 1562 1563 1563 1564 1564 1564 1565 1565 1565 1566 1566 1567 1567 1567 1567 1568 1568 1568 1568 1569 1569 1569 1569 1569 1569 1569 1570 1570 1570 1570 1570 1570 1570 1570 1570 1570 1569 1569 1569 1569 1569 1569 1569 1569 1569 1569 1568 1568 1568 1567 1567 1567 1567 1567 1566 1566 1566 1566 1566 1566 1565 1565 1565 1565 1564 1564 1564 1564 1563 1563 1563 1562 1562 1562 1561 1561 1560 1560 1560 1560 1559 1559 1559 1559 1558 1558 1558 1557 1557 1557 1556 1556 1556 1555 1555 1555 1554 1554
1559 1560 1561 1561 1562 1562 1563 1563 1564 1564 1565 1565 1565 1566 1566 1567 1567 1567 1567 1568 1568 1568 1569 1569 1569 1569 1569 1569 1570 1570 1570 1570 1570 1570 1570 1570 1570 1570 1570 1570 1570 1570 1570 1570 1569 1569 1569 1569 1569 1569 1569 1569 1569 1568 1568 1568 1567 1567 1567 1567 1567 1567 1566 1566 1566 1566 1565 1565 1565 1565 1564 1564 1564 1563 1563 1563 1563 1562 1562 1562 1561 1561 1561 1560 1560 1560 1559 1559 1559 1559 1558 1558 1558 1557 1557 1557 1556 1556 1556 1555 1555 1555 1554
1560 1560 1561 1561 1562 1563 1563 1564 1564 1564 1565 1565 1566 1566 1567 1567 1567 1567 1568 1568 1568 1569 1569 1569 1569 1570 1570 1570 1570 1570 1570 1570 1570 1570 1570 1570 1570 1570 1570 1570 1570 1570 1570 1570 1570 1570 1570 1569 1569 1569 1569 1569 1569 1569 1568 1568 1568 1568 1568 1568 1567 1567 1567 1566 1566 1566 1566 1565 1565 1565 1565 1564 1564 1564 1563 1563 1563 1563 1562 1562 1562 1561 1561 1561 1560 1560 1560 1560 1559 1559 1559 1558 1558 1558 1557 1557 1557 1556 1556 1556 1555 1555 1554
1560 1560 1561 1562 1562 1563 1563 1564 1564 1565 1565 1566 1566 1566 1567 1567 1567 1567 1568 1568 1569 1569 1569 1570 1570 1570 1570 1570 1570 1570 1570 1570 1570 1570 1570 1570 1570 1571 1571 1571 1571 1570 1570 1570 1570 1570 1570 1570 1570 1570 1570 1569 1569 1569 1569 1569 1568 1568 1568 1568 1568 1568 1567 1567 1567 1566 1566 1566 1565 1565 1565 1565 1564 1564 1564 1564 1563 1563 1563 1563 1562 1562 1562 1561 1561 1560 1560 1560 1560 1559 1559 1559 1559 1558 1558 1558 1557 1557 1556 1556 1555 1555 1555
1560 1561 1561 1562 1562 1563 1564 1564 1564 1565 1565 1565 1566 1566 1566 1567 1567 1568 1568 1569 1569 1569 1570 1570 1570 1570 1570 1570 1570 1570 1570 1570 1570 1570 1570 1571 1571 1571 1571 1571 1571 1571 1571 1571 1571 1571 1571 1570 1570 1570 1570 1570 1570 1569 1569 1569 1569 1569 1569 1568 1568 1568 1568 1567 1567 1567 1566 1566 1566 1565 1565 1565 1565 1564 1564 1564 1564 1563 1563 1563 1563 1562 1562 1562 1561 1561 1561 1560 1560 1560 1559 1559 1559 1559 1558 1558 1557 1557 1557 1556 1556 1555 1555
1560 1561 1561 1562 1563 1563 1564 1564 1564 1564 1565 1565 1566 1566 1567 1567 1568 1568 1569 1569 1569 1570 1570 1570 1571 1571 1571 1570 1570 1570 1570 1571 1571 1571 1571 1571 1571 1571 1571 1571 1571 1571 1571 1571 1571 1571 1571 1571 1571 1571 1570 1570 1570 1570 1570 1569 1569 1569 1569 1569 1568 1568 1568 1568 1567 1567 1567 1566 1566 1566 1565 1565 1565 1565 1564 1564 1564 1564 1563 1563 1563 1563 1562 1562 1562 1561 1561 1561 1560 1560 1560 1559 1559 1559 1559 1558 1558 1557 1557 1557 1556 1556 1555
1560 1561 1562 1562 1563 1563 1563 1564 1564 1564 1565 1565 1566 1567 1567 1568 1569 1569 1569 1570 1570 1570 1571 1571 1571 1571 1571 1571 1570 1570 1570 1571 1571 1571 1571 1571 1571 1571 1571 1572 1572 1572 1572 1572 1572 1571 1571 1571 1571 1571 1571 1571 1570 1570 1570 1570 1569 1569 1569 1569 1569 1568 1568 1568 1568 1567 1567 1566 1566 1566 1565 1565 1565 1565 1564 1564 1564 1564 1564 1563 1563 1563 1563 1562 1562 1562 1561 1561 1561 1560 1560 1560 1559 1559 1559 1558 1558 1558 1557 1557 1557 1556 1556
1560 1561 1562 1562 1563 1563 1564 1564 1565 1565 1566 1566 1567 1568 1568 1569 1569 1570 1570 1570 1571 1571 1571 1571 1571 1571 1571 1571 1571 1570 1570 1570 1571 1571 1571 1571 1571 1571 1572 1572 1572 1572 1572 1572 1572 1572 1572 1572 1571 1571 1571 1571 1571 1570 1570 1570 1570 1570 1569 1569 1569 1569 1568 1568 1568 1567 1567 1567 1566 1566 1566 1565 1565 1565 1565 1564 1564 1564 1564 1564 1563 1563 1563 1563 1562 1562 1561 1561 1561 1561 1560 1560 1560 1559 1559 1559 1558 1558 1558 1557 1557 1556 1556
1560 1561 1562 1562 1563 1564 1564 1565 1565 1566 1567 1567 1568 1569 1569 1569 1570 1570 1570 1571 1571 1571 1571 1571 1571 1571 1571 1571 1571 1571 1571 1571 1571 1571 1571 1571 1571 1572 1572 1572 1572 1572 1572 1572 1572 1572 1572 1572 1572 1571 1571 1571 1571 1571 1571 1570 1570 1570 1570 1569 1569 1569 1569 1568 1568 1568 1567 1567 1567 1566 1566 1565 1565 1565 1565 1565 1564 1564 1564 1564 1564 1563 1563 1563 1563 1562 1562 1561 1561 1561 1561 1560 1560 1559 1559 1559 1559 1558 1558 1558 1557 1557 1556
1561 1561 1562 1563 1564 1564 1565 1565 1566 1567 1567 1568 1569 1569 1569 1570 1570 1570 1570 1571 1571 1571 1571 1571 1571 1571 1571 1571 1571 1571 1571 1571 1571 1571 1571 1571 1572 1572 1572 1572 1572 1572 1572 1572 1572 1572 1572 1572 1572 1572 1571 1571 1571 1571 1571 1571 1570 1570 1570 1570 1569 1569 1569 1569 1568 1568 1568 1567 1567 1566 1566 1566 1565 1565 1565 1565 1565 1564 1564 1564 1564 1563 1563 1563 1563 1562 1562 1562 1561 1561 1561 1560 1560 1560 1559 1559 1559 1559 1558 1558 1558 1557 1557
1561 1562 1563 1564 1564 1565 1565 1566 1567 1567 1568 1568 1569 1569 1569 1570 1570 1570 1570 1571 1571 1571 1571 1571 1571 1571 1571 1571 1571 1571 1571 1571 1571 1571 1571 1571 1572 1572 1572 1572 1572 1572 1572 1572 1572 1572 1572 1572 1572 1572 1572 1571 1571 1571 1571 1571 1570 1570 1570 1570 1569 1569 1569 1569 1569 1568 1568 1568 1567 1567 1566 1566 1565 1565 1565 1565 1565 1565 1564 1564 1564 1564 1563 1563 1563 1563 1562 1562 1562 1561 1561 1561 1560 1560 1560 1559 1559 1559 1559 1558 1558 1557 1557
1562 1563 1563 1564 1564 1565 1566 1567 1567 1568 1568 1569 1569 1569 1569 1570 1570 1570 1570 1570 1571 1571 1571 1571 1571 1571 1571 1571 1572 1572 1572 1572 1572 1572 1572 1572 1572 1572 1572 1572 1572 1572 1573 1573 1572 1572 1572 1572 1572 1572 1572 1571 1571 1571 1571 1571 1571 1570 1570 1570 1569 1569 1569 1569 1569 1568 1568 1568 1567 1567 1566 1566 1566 1565 1565 1565 1565 1565 1565 1564 1564 1564 1563 1563 1563 1563 1562 1562 1562 1561 1561 1561 1560 1560 1560 1559 1559 1559 1559 1558 1558 1558 1557
1562 1563 1564 1564 1565 1565 1566 1567 1567 1568 1568 1569 1569 1569 1569 1570 1570 1570 1570 1570 1570 1571 1571 1571 1571 1571 1571 1572 1572 1572 1572 1572 1572 1572 1572 1572 1572 1572 1572 1572 1573 1573 1573 1573 1572 1572 1572 1572 1572 1572 1572 1572 1571 1571 1571 1571 1571 1570 1570 1570 1569 1569 1569 1569 1569 1568 1568 1568 1567 1567 1567 1566 1566 1566 1565 1565 1565 1565 1565 1564 1564 1564 1564 1563 1563 1563 1563 1562 1562 1562 1561 1561 1561 1560 1560 1560 1559 1559 1559 1559 1558 1558 1557
1562 1563 1564 1564 1565 1566 1566 1567 1567 1568 1568 1569 1569 1569 1569 1570 1570 1570 1570 1570 1570 1571 1571 1571 1571 1571 1571 1572 1572 1572 1572 1572 1572 1572 1572 1572 1572 1572 1572 1572 1573 1573 1572 1572 1572 1572 1572 1572 1572 1572 1572 1572 1571 1571 1571 1571 1571 1571 1570 1570 1569 1569 1569 1569 1569 1568 1568 1568 1567 1567 1567 1566 1566 1566 1566 1565 1565 1565 1565 1565 1564 1564 1564 1563 1563 1563 1563 1562 1562 1562 1562 1561 1561 1561 1560 1560 1560 1559 1559 1559 1559 1558 1558
1562 1563 1564 1564 1565 1566 1566 1567 1567 1568 1568 1569 1569 1569 1569 1569 1570 1570 1570 1570 1570 1570 1571 1571 1571 1571 1571 1572 1572 1572 1572 1572 1572 1572 1572 1572 1572 1572 1572 1572 1572 1572 1572 1572 1572 1572 1572 1572 1572 1572 1572 1572 1572 1571 1571 1571 1571 1571 1571 1570 1570 1570 1569 1569 1569 1569 1568 1568 1568 1567 1567 1567 1566 1566 1566 1565 1565 1565 1565 1565 1564 1564 1564 1564 1563 1563 1563 1563 1562 1562 1562 1561 1561 1561 1561 1560 1560 1560 1559 1559 1559 1558 1558
1562 1563 1564 1564 1565 1565 1566 1567 1567 1568 1568 1568 1569 1569 1569 1569 1569 1570 1570 1570 1570 1570 1570 1571 1571 1571 1571 1572 1572 1572 1572 1572 1572 1572 1572 1572 1572 1572 1572 1572 1572 1572 1572 1572 1572 1572 1572 1572 1572 1572 1572 1572 1572 1572 1571 1571 1571 1571 1571 1571 1570 1570 1570 1570 1569 1569 1569 1568 1568 1568 1567 1567 1567 1566 1566 1566 1565 1565 1565 1565 1565 1564 1564 1564 1564 1563 1563 1563 1563 1562 1562 1562 1561 1561 1561 1560 1560 1560 1559 1559 1559 1559 1558
1562 1563 1563 1564 1565 1565 1566 1566 1567 1567 1568 1568 1568 1569 1569 1569 1569 1569 1570 1570 1570 1570 1570 1571 1571 1571 1571 1571 1572 1572 1572 1572 1572 1572 1572 1572 1572 1572 1572 1572 1572 1572 1572 1572 1572 1572 1572 1572 1572 1572 1572 1572 1572 1572 1571 1571 1571 1571 1571 1571 1571 1570 1570 1570 1570 1569 1569 1569 1569 1568 1568 1567 1567 1567 1566 1566 1565 1565 1565 1565 1565 1565 1564 1564 1564 1564 1563 1563 1563 1563 1562 1562 1562 1561 1561 1561 1560 1560 1559 1559 1559 1559 1558
1562 1563 1563 1564 1564 1565 1566 1566 1567 1567 1567 1568 1568 1569 1569 1569 1569 1569 1570 1570 1570 1570 1570 1571 1571 1571 1571 1571 1571 1572 1572 1572 1572 1572 1572 1572 1572 1572 1572 1572 1572 1572 1572 1572 1572 1572 1572 1572 1572 1572 1571 1571 1572 1572 1571 1571 1571 1571 1571 1571 1571 1571 1570 1570 1570 1570 1569 1569 1569 1569 1568 1568 1567 1567 1567 1566 1566 1566 1565 1565 1565 1565 1565 1564 1564 1564 1564 1563 1563 1563 1563 1562 1562 1562 1561 1561 1561 1560 1560 1559 1559 1559 1558
1562 1562 1563 1564 1564 1565 1565 1566 1566 1567 1567 1568 1568 1568 1569 1569 1569 1569 1570 1570 1570 1570 1570 1571 1571 1571 1571 1571 1571 1571 1571 1572 1572 1572 1572 1572 1572 1572 1572 1572 1572 1572 1572 1572 1572 1572 1572 1572 1572 1572 1571 1571 1571 1571 1571 1571 1571 1571 1571 1571 1571 1571 1571 1570 1570 1570 1570 1569 1569 1569 1569 1568 1568 1567 1567 1567 1567 1566 1566 1565 1565 1565 1565 1564 1564 1564 1564 1564 1563 1563 1563 1563 1562 1562 1562 1561 1561 1561 1560 1560 1559 1559 1559
1561 1562 1563 1564 1564 1565 1565 1566 1566 1567 1567 1567 1568 1568 1569 1569 1569 1569 1570 1570 1570 1570 1570 1571 1571 1571 1571 1571 1571 1571 1571 1571 1572 1572 1572 1572 1572 1572 1572 1572 1572 1572 1572 1572 1572 1572 1572 1572 1572 1572 1571 1571 1571 1571 1571 1571 1571 1571 1571 1571 1571 1571 1571 1570 1570 1570 1570 1570 1569 1569 1569 1568 1568 1568 1568 1567 1567 1566 1566 1565 1565 1565 1565 1565 1564 1564 1564 1564 1564 1563 1563 1563 1563 1562 1562 1562 1561 1561 1561 1560 1560 1559 1559
1561 1562 1563 1563 1564 1564 1565 1565 1566 1566 1567 1567 1568 1568 1568 1569 1569 1569 1570 1570 1570 1570 1570 1570 1571 1571 1571 1571 1571 1571 1571 1571 1572 1572 1572 1572 1572 1572 1572 1572 1572 1572 1572 1572 1572 1572 1572 1572 1572 1572 1571 1571 1571 1571 1571 1571 1571 1571 1571 1571 1571 1571 1571 1571 1570 1570 1570 1570 1569 1569 1569 1569 1568 1568 1568 1567 1567 1566 1566 1566 1565 1565 1565 1564 1565 1565 1564 1564 1564 1564 1563 1563 1563 1563 1562 1562 1562 1561 1561 1560 1560 1559 1559
1561 1562 1563 1563 1564 1564 1564 1565 1566 1566 1567 1567 1567 1568 1568 1569 1569 1569 1569 1570 1570 1570 1570 1570 1570 1571 1571 1571 1571 1571 1571 1571 1572 1572 1572 1572 1572 1572 1572 1572 1572 1572 1572 1572 1572 1572 1572 1572 1572 1572 1571 1571 1571 1571 1571 1571 1571 1571 1571 1571 1571 1571 1571 1571 1570 1570 1570 1570 1569 1569 1569 1569 1568 1568 1568 1567 1567 1567 1566 1566 1566 1565 1565 1564 1564 1564 1564 1564 1564 1564 1564 1563 1563 1563 1563 1562 1562 1562 1561 1561 1560 1560 1559
1561 1562 1562 1563 1563 1564 1564 1565 1565 1566 1566 1567 1567 1568 1568 1569 1569 1569 1569 1569 1570 1570 1570 1570 1570 1570 1571 1571 1571 1571 1571 1572 1572 1572 1572 1572 1572 1572 1572 1572 1572 1572 1571 1571 1571 1572 1572 1572 1571 1571 1571 1571 1571 1571 1571 1571 1571 1571 1571 1571 1571 1571 1571 1570 1570 1570 1570 1570 1569 1569 1569 1569 1568 1568 1568 1568 1567 1567 1566 1566 1566 1566 1565 1565 1564 1564 1564 1564 1564 1564 1564 1563 1563 1563 1563 1562 1562 1562 1561 1561 1560 1560 1560
1561 1562 1562 1563 1563 1564 1564 1564 1565 1566 1566 1567 1567 1568 1568 1568 1569 1569 1569 1569 1569 1570 1570 1570 1570 1570 1570 1571 1571 1571 1571 1571 1571 1572 1572 1572 1572 1572 1572 1572 1571 1571 1571 1571 1571 1571 1571 1571 1571 1571 1571 1571 1571 1571 1571 1571 1571 1571 1571 1571 1571 1571 1570 1570 1570 1570 1570 1570 1569 1569 1569 1569 1569 1568 1568 1568 1567 1567 1567 1566 1566 1566 1566 1565 1565 1564 1564 1564 1564 1564 1564 1563 1563 1563 1563 1562 1562 1562 1561 1561 1561 1560 1560
1561 1561 1562 1562 1563 1563 1564 1564 1565 1565 1566 1566 1567 1567 1568 1568 1569 1569 1569 1569 1569 1569 1569 1570 1570 1570 1570 1570 1570 1571 1571 1571 1571 1571 1571 1571 1571 1571 1571 1571 1571 1571 1571 1571 1571 1571 1571 1571 1571 1571 1571 1571 1571 1571 1571 1571 1571 1571 1571 1571 1571 1570 1570 1570 1570 1570 1570 1570 1569 1569 1569 1569 1569 1568 1568 1568 1568 1567 1567 1567 1566 1566 1566 1565 1565 1564 1564 1564 1564 1564 1563 1563 1563 1563 1563 1562 1562 1562 1561 1561 1560 1560 1560
1561 1561 1562 1562 1563 1563 1564 1564 1565 1565 1566 1566 1567 1567 1567 1568 1568 1569 1569 1569 1569 1569 1569 1569 1569 1570 1570 1570 1570 1570 1570 1570 1571 1571 1571 1571 1571 1571 1571 1571 1571 1571 1571 1571 1571 1571 1571 1571 1571 1570 1570 1570 1570 1570 1570 1570 1570 1570 1570 1570 1570 1570 1570 1570 1570 1570 1570 1570 1569 1569 1569 1569 1569 1568 1568 1568 1568 1567 1567 1567 1567 1566 1566 1565 1565 1565 1565 1564 1564 1564 1563 1563 1563 1563 1562 1562 1562 1562 1561 1561 1560 1560 1560
1560 1561 1561 1562 1563 1563 1564 1564 1564 1565 1565 1566 1566 1567 1567 1568 1568 1568 1568 1569 1569 1569 1569 1569 1569 1569 1570 1570 1570 1570 1570 1570 1570 1570 1570 1570 1571 1571 1571 1571 1571 1571 1571 1571 1571 1571 1570 1570 1570 1570 1570 1570 1570 1570 1570 1570 1570 1570 1570 1570 1570 1570 1570 1570 1570 1570 1570 1569 1569 1569 1569 1569 1569 1568 1568 1568 1568 1567 1567 1567 1567 1566 1566 1566 1565 1565 1565 1565 1564 1564 1563 1563 1563 1562 1562 1562 1562 1561 1561 1561 1560 1560 1559
1560 1560 1561 1562 1562 1563 1564 1564 1564 1564 1565 1565 1566 1566 1567 1567 1567 1568 1568 1568 1569 1569 1569 1569 1569 1569 1569 1569 1570 1570 1570 1570 1570 1570 1570 1570 1570 1570 1570 1570 1570 1570 1571 1571 1570 1570 1570 1570 1570 1570 1570 1570 1570 1570 1570 1570 1570 1570 1570 1570 1570 1570 1570 1570 1570 1570 1570 1569 1569 1569 1569 1569 1569 1568 1568 1568 1568 1567 1567 1567 1567 1566 1566 1566 1565 1565 1565 1565 1564 1564 1563 1563 1562 1562 1562 1562 1561 1561 1561 1560 1560 1560 1559
1559 1560 1560 1561 1562 1563 1563 1563 1564 1564 1564 1565 1565 1566 1566 1567 1567 1567 1567 1568 1568 1568 1568 1569 1569 1569 1569 1569 1569 1569 1569 1569 1570 1570 1570 1570 1570 1570 1570 1570 1570 1570 1570 1570 1570 1570 1570 1570 1570 1570 1570 1570 1570 1570 1570 1570 1570 1570 1570 1570 1570 1570 1570 1570 1570 1569 1569 1569 1569 1569 1569 1569 1568 1568 1568 1568 1567 1567 1567 1567 1567 1566 1566 1566 1565 1565 1565 1564 1564 1564 1564 1563 1563 1562 1562 1561 1561 1561 1561 1560 1560 1560 1559
1559 1559 1559 1560 1561 1562 1562 1563 1563 1564 1564 1564 1565 1565 1566 1566 1566 1567 1567 1567 1567 1567 1568 1568 1568 1568 1568 1569 1569 1569 1569 1569 1569 1569 1570 1570 1570 1570 1570 1570 1570 1570 1570 1570 1570 1570 1570 1570 1570 1570 1570 1570 1570 1569 1569 1569 1569 1569 1569 1569 1569 1569 1569 1569 1569 1569 1569 1569 1569 1569 1569 1568 1568 1568 1568 1567 1567 1567 1567 1567 1566 1566 1566 1566 1565 1565 1564 1564 1564 1564 1563 1563 1563 1563 1562 1561 1561 1561 1560 1560 1560 1559 1559
1558 1558 1559 1559 1560 1561 1562 1562 1563 1563 1564 1564 1564 1564 1565 1565 1566 1566 1566 1566 1567 1567 1567 1567 1567 1568 1568 1568 1568 1568 1569 1569 1569 1569 1569 1569 1569 1570 1570 1570 1570 1570 1570 1570 1570 1570 1570 1570 1570 1570 1570 1569 1569 1569 1569 1569 1569 1569 1569 1569 1569 1569 1569 1569 1569 1569 1569 1569 1569 1569 1568 1568 1568 1568 1567 1567 1567 1567 1566 1566 1566 1566 1566 1566 1565 1565 1564 1564 1564 1563 1563 1563 1563 1562 1562 1562 1561 1561 1560 1560 1560 1559 1559
1557 1557 1558 1559 1559 1560 1561 1562 1562 1563 1563 1563 1563 1564 1564 1564 1565 1565 1565 1566 1566 1566 1566 1566 1567 1567 1567 1567 1568 1568 1568 1568 1569 1569 1569 1569 1569 1569 1569 1570 1570 1570 1570 1570 1570 1569 1569 1569 1569 1569 1569 1569 1569 1569 1569 1569 1569 1569 1569 1568 1568 1568 1569 1569 1569 1569 1569 1569 1568 1568 1568 1568 1568 1567 1567 1567 1567 1566 1566 1566 1566 1566 1566 1565 1565 1565 1564 1564 1563 1562 1563 1562 1562 1562 1561 1561 1561 1561 1560 1560 1560 1559 1559
1556 1557 1557 1558 1558 1559 1560 1561 1562 1562 1562 1562 1563 1563 1563 1564 1564 1564 1565 1565 1565 1565 1566 1566 1566 1566 1567 1567 1567 1567 1568 1568 1568 1569 1569 1569 1569 1569 1569 1569 1569 1569 1569 1569 1569 1569 1569 1569 1569 1569 1569 1569 1569 1569 1569 1569 1569 1568 1568 1568 1568 1568 1568 1568 1568 1568 1568 1568 1568 1568 1568 1568 1567 1567 1567 1567 1566 1566 1566 1566 1566 1565 1565 1565 1565 1564 1564 1564 1563 1563 1562 1562 1562 1561 1561 1561 1561 1560 1560 1560 1560 1559 1559
1556 1556 1557 1557 1557 1558 1559 1560 1561 1561 1561 1562 1562 1562 1563 1563 1564 1564 1564 1564 1564 1565 1565 1565 1565 1566 1566 1566 1567 1567 1567 1568 1568 1568 1568 1569 1569 1569 1569 1569 1569 1569 1569 1569 1569 1569 1569 1569 1569 1569 1569 1569 1569 1569 1569 1568 1568 1568 1568 1568 1568 1567 1567 1567 1568 1568 1568 1568 1567 1567 1567 1567 1567 1567 1567 1566 1566 1566 1566 1566 1566 1565 1565 1565 1564 1564 1564 1563 1563 1563 1562 1562 1561 1561 1561 1561 1561 1560 1560 1560 1559 1559 1559
1555 1555 1556 1556 1556 1557 1557 1558 1559 1560 1560 1561 1561 1561 1562 1562 1562 1563 1563 1564 1564 1564 1564 1564 1565 1565 1565 1566 1566 1567 1567 1567 1568 1568 1568 1568 1568 1569 1569 1569 1569 1569 1569 1569 1569 1569 1569 1569 1569 1569 1569 1569 1569 1568 1568 1568 1568 1568 1568 1567 1567 1567 1567 1567 1567 1567 1567 1567 1567 1567 1567 1567 1567 1567 1566 1566 1566 1565 1565 1565 1565 1565 1565 1564 1564 1564 1563 1563 1563 1563 1562 1562 1562 1561 1561 1561 1561 1560 1560 1559 1559 1559 1558
1553 1554 1554 1555 1555 1556 1556 1557 1558 1558 1559 1559 1560 1560 1561 1561 1561 1562 1562 1563 1563 1563 1564 1564 1564 1564 1565 1565 1566 1566 1566 1567 1567 1567 1567 1568 1568 1568 1568 1568 1568 1568 1568 1568 1568 1568 1568 1568 1568 1568 1568 1568 1568 1568 1568 1568 1568 1568 1567 1567 1567 1567 1567 1567 1566 1566 1566 1567 1567 1567 1567 1566 1566 1566 1566 1566 1565 1565 1565 1565 1565 1565 1564 1564 1564 1563 1563 1563 1562 1562 1562 1562 1561 1561 1561 1561 1560 1560 1560 1559 1559 1558 1558
1552 1552 1553 1554 1554 1555 1555 1556 1556 1557 1558 1558 1559 1559 1559 1560 1560 1561 1561 1562 1562 1562 1563 1563 1564 1564 1564 1565 1565 1565 1566 1566 1566 1567 1567 1567 1567 1568 1568 1568 1568 1568 1568 1568 1568 1568 1568 1568 1568 1568 1568 1568 1568 1568 1568 1568 1567 1567 1567 1567 1567 1567 1566 1566 1566 1566 1566 1566 1566 1566 1566 1566 1566 1566 1565 1565 1565 1564 1564 1564 1564 1564 1564 1564 1563 1563 1563 1562 1562 1562 1562 1561 1561 1561 1561 1560 1560 1560 1560 1559 1559 1558 1558
1551 1551 1552 1553 1554 1554 1555 1555 1555 1556 1556 1557 1558 1558 1559 1559 1559 1560 1560 1561 1561 1562 1562 1563 1563 1564 1564 1564 1564 1565 1565 1565 1566 1566 1566 1567 1567 1567 1567 1567 1567 1567 1567 1567 1567 1567 1567 1567 1567 1567 1567 1567 1567 1567 1567 1567 1567 1567 1567 1567 1566 1566 1566 1566 1566 1566 1565 1566 1566 1566 1566 1566 1565 1565 1565 1564 1564 1564 1564 1564 1564 1564 1563 1563 1563 1562 1562 1562 1562 1562 1561 1561 1561 1561 1560 1560 1560 1560 1559 1559 1559 1558 1557
1550 1551 1551 1552 1553 1553 1554 1554 1554 1555 1555 1556 1557 1557 1558 1558 1559 1559 1560 1560 1561 1561 1562 1562 1563 1563 1563 1564 1564 1564 1564 1565 1565 1565 1566 1566 1566 1567 1567 1567 1567 1567 1567 1567 1567 1567 1567 1567 1566 1566 1566 1566 1566 1567 1567 1566 1566 1566 1566 1566 1566 1566 1566 1565 1565 1565 1565 1565 1565 1565 1565 1565 1565 1564 1564 1564 1564 1564 1564 1564 1563 1563 1563 1563 1562 1562 1562 1561 1561 1561 1561 1561 1561 1560 1560 1560 1559 1559 1559 1558 1558 1557 1557
1549 1550 1550 1551 1552 1552 1553 1553 1554 1554 1554 1555 1556 1556 1557 1558 1558 1559 1559 1559 1560 1560 1561 1561 1562 1562 1563 1563 1563 1564 1564 1564 1564 1565 1565 1565 1566 1566 1566 1566 1566 1566 1566 1566 1566 1566 1566 1566 1566 1566 1566 1566 1566 1566 1566 1566 1566 1566 1566 1565 1565 1565 1565 1565 1565 1564 1564 1564 1564 1564 1564 1564 1564 1564 1564 1563 1563 1563 1563 1563 1563 1563 1562 1562 1562 1561 1561 1561 1561 1561 1561 1560 1560 1560 1560 1559 1559 1559 1558 1558 1557 1556 1556
1549 1549 1549 1550 1551 1551 1552 1552 1553 1553 1554 1554 1555 1555 1556 1557 1557 1558 1558 1559 1559 1560 1560 1561 1561 1562 1562 1562 1563 1563 1563 1564 1564 1564 1564 1565 1565 1565 1565 1565 1565 1565 1565 1565 1565 1565 1565 1565 1565 1565 1565 1565 1565 1565 1565 1565 1565 1565 1565 1565 1565 1565 1564 1564 1564 1564 1564 1564 1564 1564 1564 1564 1564 1563 1563 1563 1563 1563 1563 1562 1562 1562 1562 1562 1561 1561 1561 1561 1560 1560 1560 1560 1560 1560 1559 1559 1559 1558 1558 1557 1556 1556 1555
1548 1548 1549 1549 1550 1550 1551 1551 1552 1552 1553 1553 1554 1554 1555 1556 1556 1557 1557 1558 1559 1559 1559 1560 1560 1561 1561 1562 1562 1563 1563 1563 1563 1563 1564 1564 1564 1564 1564 1565 1565 1565 1565 1565 1565 1565 1565 1564 1564 1564 1564 1564 1564 1564 1564 1564 1564 1564 1564 1564 1564 1564 1564 1564 1564 1563 1563 1563 1563 1563 1563 1563 1563 1563 1562 1562 1562 1562 1562 1562 1562 1562 1561 1561 1561 1561 1560 1560 1560 1560 1560 1560 1559 1559 1559 1559 1558 1558 1557 1556 1555 1555 1554
1547 1547 1548 1548 1549 1549 1550 1550 1551 1551 1551 1552 1553 1553 1554 1555 1555 1556 1557 1557 1558 1558 1559 1559 1559 1560 1561 1561 1561 1562 1562 1562 1562 1563 1563 1563 1563 1564 1564 1564 1564 1564 1564 1564 1564 1564 1564 1564 1564 1564 1564 1564 1564 1564 1564 1564 1564 1563 1563 1563 1563 1563 1563 1563 1563 1563 1562 1562 1562 1562 1562 1562 1562 1562 1562 1562 1562 1562 1561 1561 1561 1561 1561 1561 1560 1560 1560 1560 1560 1559 1559 1559 1559 1559 1559 1558 1558 1557 1556 1555 1555 1554 1553
1545 1546 1546 1547 1548 1548 1549 1549 1549 1550 1550 1551 1551 1552 1553 1554 1554 1555 1556 1556 1557 1558 1558 1559 1559 1559 1560 1560 1561 1561 1561 1562 1562 1562 1562 1562 1562 1563 1563 1563 1563 1563 1563 1563 1563 1563 1563 1563 1563 1563 1563 1563 1563 1563 1563 1563 1563 1563 1562 1562 1562 1562 1562 1562 1562 1562 1562 1562 1561 1561 1561 1561 1561 1561 1561 1561 1561 1561 1561 1560 1560 1560 1560 1560 1560 1560 1559 1559 1559 1559 1559 1559 1559 1558 1558 1558 1557 1556 1555 1555 1554 1553 1552
1544 1545 1545 1546 1546 1547 1548 1548 1549 1549 1549 1549 1550 1551 1552 1553 1554 1554 1555 1556 1557 1557 1558 1558 1558 1559 1559 1559 1560 1560 1561 1561 1561 1561 1561 1561 1561 1562 1562 1562 1562 1562 1562 1562 1562 1562 1562 1562 1562 1562 1562 1562 1562 1562 1562 1562 1562 1562 1562 1561 1561 1561 1561 1561 1561 1561 1561 1561 1561 1560 1560 1560 1560 1560 1560 1560 1560 1560 1560 1560 1560 1560 1560 1560 1559 1559 1559 1559 1559 1559 1558 1558 1558 1558 1557 1557 1556 1555 1555 1554 1553 1552 1552
1543 1544 1544 1544 1545 1546 1546 1547 1547 1548 1548 1549 1549 1550 1551 1552 1553 1554 1554 1555 1555 1556 1556 1557 1557 1558 1558 1559 1559 1559 1560 1560 1560 1560 1560 1560 1560 1561 1561 1561 1561 1561 1561 1561 1561 1562 1562 1562 1562 1562 1562 1562 1561 1561 1561 1561 1561 1561 1560 1560 1560 1560 1560 1560 1560 1560 1560 1560 1560 1560 1559 1559 1559 1559 1559 1559 1559 1559 1559 1559 1559 1559 1559 1559 1559 1559 1559 1558 1558 1558 1558 1558 1557 1557 1557 1556 1555 1555 1554 1553 1552 1552 1551
1542 1542 1543 1543 1544 1544 1545 1545 1546 1546 1547 1548 1548 1549 1550 1551 1552 1553 1553 1554 1554 1555 1555 1555 1556 1556 1557 1558 1558 1559 1559 1559 1559 1559 1559 1559 1560 1560 1560 1560 1560 1560 1560 1560 1561 1561 1561 1561 1561 1561 1561 1561 1560 1560 1560 1560 1560 1559 1559 1559 1559 1559 1559 1559 1559 1559 1559 1559 1559 1559 1559 1559 1559 1559 1559 1559 1559 1559 1559 1559 1559 1559 1559 1559 1559 1558 1558 1558 1557 1557 1557 1557 1557 1556 1556 1555 1555 1554 1553 1553 1552 1551 1550
1540 1541 1541 1542 1542 1543 1544 1544 1545 1545 1546 1546 1547 1548 1549 1550 1550 1551 1552 1552 1553 1553 1554 1554 1555 1555 1556 1557 1557 1558 1558 1559 1559 1559 1559 1559 1559 1559 1559 1559 1559 1559 1559 1559 1559 1559 1560 1560 1560 1560 1560 1559 1559 1559 1559 1559 1559 1559 1558 1558 1558 1558 1558 1559 1559 1559 1559 1559 1558 1558 1558 1558 1558 1558 1558 1558 1558 1558 1558 1558 1558 1558 1558 1558 1558 1558 1557 1557 1557 1557 1556 1556 1556 1556 1555 1555 1554 1554 1553 1552 1551 1550 1549
1539 1539 1540 1541 1541 1542 1542 1543 1544 1544 1544 1545 1546 1547 1548 1548 1549 1549 1550 1551 1552 1552 1553 1553 1554 1554 1555 1556 1556 1557 1557 1558 1558 1558 1558 1558 1558 1559 1559 1559 1559 1559 1558 1558 1558 1558 1558 1558 1559 1558 1558 1559 1558 1558 1558 1558 1558 1558 1557 1557 1557 1557 1557 1557 1558 1558 1558 1558 1558 1557 1557 1557 1557 1558 1558 1557 1557 1557 1557 1557 1557 1557 1557 1557 1557 1557 1556 1556 1556 1556 1556 1555 1555 1555 1554 1554 1553 1553 1552 1551 1550 1549 1549
1537 1538 1539 1539 1540 1541 1541 1542 1542 1543 1543 1544 1544 1545 1546 1547 1548 1549 1549 1550 1550 1551 1552 1552 1553 1554 1554 1554 1555 1556 1556 1557 1557 1557 1557 1558 1558 1558 1558 1558 1558 1558 1558 1558 1558 1557 1557 1557 1558 1558 1557 1557 1557 1557 1557 1557 1557 1557 1556 1556 1556 1556 1556 1556 1556 1556 1557 1557 1557 1556 1556 1556 1556 1557 1557 1556 1556 1556 1556 1556 1556 1557 1557 1557 1556 1556 1556 1555 1555 1555 1555 1555 1554 1554 1554 1553 1553 1552 1551 1550 1549 1549 1548
1536 1537 1538 1538 1539 1539 1540 1540 1541 1542 1542 1543 1544 1544 1545 1546 1546 1547 1548 1549 1549 1550 1551 1551 1552 1552 1553 1553 1554 1554 1555 1556 1556 1556 1557 1557 1557 1557 1557 1557 1557 1557 1557 1557 1557 1557 1556 1556 1556 1557 1556 1556 1556 1556 1556 1556 1556 1556 1556 1555 1555 1555 1555 1555 1555 1555 1555 1555 1555 1555 1555 1555 1555 1555 1556 1556 1555 1555 1555 1555 1556 1556 1556 1556 1555 1555 1555 1555 1554 1554 1554 1554 1554 1553 1553 1552 1552 1551 1550 1549 1549 1548 1547
1535 1536 1536 1537 1538 1538 1539 1539 1540 1540 1541 1542 1542 1543 1544 1544 1545 1546 1547 1548 1549 1549 1550 1550 1551 1551 1551 1552 1553 1554 1554 1554 1555 1555 1556 1556 1556 1556 1556 1556 1557 1557 1557 1556 1556 1556 1555 1555 1555 1555 1555 1555 1555 1555 1555 1555 1555 1555 1555 1554 1554 1554 1553 1553 1553 1554 1554 1554 1554 1554 1554 1554 1554 1554 1555 1555 1554 1554 1554 1555 1555 1555 1555 1555 1554 1554 1554 1554 1554 1554 1553 1553 1553 1552 1552 1551 1551 1550 1549 1548 1548 1547 1546
1534 1535 1535 1536 1537 1537 1538 1538 1539 1539 1540 1540 1541 1542 1543 1544 1545 1545 1546 1547 1548 1548 1549 1549 1549 1550 1550 1551 1552 1552 1553 1553 1554 1554 1555 1555 1555 1555 1555 1555 1555 1556 1556 1555 1555 1555 1554 1554 1554 1555 1554 1554 1554 1554 1554 1554 1554 1554 1553 1553 1553 1552 1552 1552 1552 1552 1552 1552 1553 1553 1553 1554 1554 1554 1554 1554 1554 1554 1554 1554 1554 1554 1554 1554 1554 1554 1553 1553 1553 1553 1552 1552 1552 1551 1551 1550 1549 1549 1548 1547 1547 1546 1545
1533 1534 1534 1535 1536 1536 1537 1537 1538 1538 1539 1539 1540 1541 1542 1543 1544 1544 1545 1546 1546 1547 1548 1548 1549 1549 1549 1550 1551 1551 1551 1552 1552 1553 1554 1554 1554 1554 1554 1554 1554 1555 1554 1554 1554 1554 1554 1554 1554 1554 1553 1553 1552 1552 1552 1552 1552 1552 1552 1552 1551 1551 1551 1551 1551 1551 1551 1551 1551 1552 1552 1552 1552 1553 1553 1553 1553 1553 1553 1553 1553 1553 1553 1553 1553 1553 1552 1552 1552 1552 1551 1551 1551 1550 1550 1549 1549 1548 1547 1546 1546 1545 1544
1532 1533 1534 1534 1535 1535 1536 1536 1537 1537 1538 1539 1539 1540 1541 1542 1542 1543 1544 1545 1545 1546 1547 1547 1548 1548 1549 1549 1549 1550 1550 1550 1551 1552 1552 1553 1553 1553 1553 1554 1554 1554 1554 1554 1554 1554 1553 1553 1552 1552 1552 1552 1551 1551 1550 1550 1550 1551 1551 1551 1550 1550 1549 1549 1549 1549 1549 1549 1549 1550 1550 1551 1551 1551 1551 1551 1552 1552 1552 1552 1552 1552 1552 1552 1552 1552 1551 1551 1551 1551 1550 1550 1550 1549 1549 1548 1548 1547 1546 1545 1545 1544 1543
1531 1532 1533 1533 1534 1534 1535 1535 1536 1537 1537 1538 1539 1539 1540 1540 1541 1542 1543 1544 1545 1545 1546 1546 1547 1547 1548 1548 1549 1549 1549 1549 1550 1551 1551 1551 1552 1552 1552 1553 1553 1553 1553 1553 1552 1552 1552 1551 1551 1551 1552 1551 1551 1550 1550 1549 1549 1549 1549 1549 1549 1549 1548 1548 1548 1548 1548 1549 1548 1549 1549 1549 1549 1550 1550 1550 1550 1550 1550 1551 1551 1551 1551 1551 1551 1551 1550 1550 1550 1550 1549 1549 1549 1548 1548 1547 1547 1546 1545 1545 1544 1543 1542
1530 1531 1532 1532 1533 1534 1534 1535 1535 1536 1536 1537 1538 1538 1539 1539 1540 1541 1542 1543 1544 1544 1545 1545 1546 1546 1547 1547 1547 1547 1548 1548 1549 1549 1550 1550 1550 1551 1551 1551 1552 1552 1552 1551 1551 1551 1550 1549 1549 1550 1551 1550 1550 1549 1549 1548 1548 1548 1548 1548 1548 1547 1547 1547 1547 1547 1547 1547 1547 1547 1547 1548 1548 1549 1549 1549 1549 1549 1549 1549 1549 1549 1549 1550 1550 1549 1549 1549 1549 1549 1549 1548 1548 1547 1547 1546 1546 1545 1544 1544 1543 1542 1541